Weather observations for the past three days for
Lake Elmo Airport
Imperial (Metric)
Date Time (cdt) Wind (mph) Vis. (mi.) Weather Sky Cond. Temperature (ºF) Relative Humidity Wind Chill (°F) Heat Index (°F) Pressure Precipitation (in)
Air Dwpt 6 hour altimeter (in) sea level (mb) 1 hr 3 hr 6 hr
Max. Min.
12 15:55 S 10 10.00 Fair CLR 69.8 64.4 83% 29.75 0.0 0.01
12 15:35 S 17 10.00 Partly Cloudy SCT023 SCT034 SCT045 69.8 64.4 83% 29.76 0.0 0.01
12 15:15 S 14 7.00 Light Rain SCT023 SCT034 SCT044 66.2 62.6 88% 29.77 0.0 0.01
12 14:55 S 14 G 17 10.00 Thunderstorm Light Rain in Vicinity SCT090 68 60.8 78% 29.77 0.0
12 14:35 S 13 G 23 10.00 Partly Cloudy SCT085 68 60.8 78% 29.78 0.0
12 14:15 S 14 G 23 10.00 Fair CLR 68 60.8 78% 29.76 0.0
12 13:55 S 16 G 23 10.00 Fair CLR 68 60.8 78% 29.77 0.0
12 13:35 S 15 10.00 Fair CLR 64.4 60.8 88% 29.78 0.0
12 13:15 S 10 10.00 Fair CLR 64.4 60.8 88% 29.78 0.0
12 12:55 S 9 10.00 Fair CLR 64.4 59 83% 29.76 0.0
12 12:35 S 10 10.00 Fair CLR 62.6 59 88% 29.78 0.0
12 12:15 S 14 10.00 Fair CLR 62.6 59 88% 29.78 0.0
12 11:55 S 13 G 16 10.00 Fair CLR 62.6 59 88% 29.8 0.0 0.01
12 11:35 SW 10 G 18 10.00 Fair CLR 62.6 59 88% 29.82 0.0 0.01
12 11:15 S 18 G 24 10.00 Light Rain SCT046 SCT060 SCT070 62.6 57.2 83% 29.79 0.0 0.01
12 10:55 SE 6 10.00 Thunderstorm Light Rain in Vicinity SCT046 BKN065 OVC075 60.8 57.2 88% 29.82 0.0 0.07
12 10:35 SE 5 5.00 Thunderstorm Rain in Vicinity SCT039 BKN075 OVC110 60.8 59 94% 29.82 0.0 0.05
12 10:15 E 5 10.00 Rain SCT075 OVC110 60.8 59 94% 29.82 0.0 0.01
12 09:55 SE 6 10.00 Light Rain SCT060 SCT080 OVC110 60.8 57.2 88% 29.84 0.0 0.02
12 09:35 N 3 10.00 Light Rain SCT075 OVC100 62.6 55.4 77% 29.86 0.0 0.01
12 09:15 N 9 10.00 Light Rain OVC100 64.4 55.4 73% 29.84 0.0
12 08:55 NE 5 10.00 Overcast OVC110 66.2 53.6 64% 29.81 0.0
12 08:35 SE 7 10.00 Overcast OVC110 66.2 53.6 64% 29.8 0.0
12 08:15 S 9 10.00 Mostly Cloudy BKN110 64.4 55.4 73% 29.8 0.0
12 07:55 S 6 10.00 Partly Cloudy SCT110 64.4 55.4 73% 29.8 0.0
12 07:35 S 5 10.00 Mostly Cloudy BKN110 62.6 55.4 77% 29.79 0.0
12 07:15 SE 6 10.00 Mostly Cloudy BKN110 62.6 53.6 73% 29.79 0.0
12 06:55 S 3 10.00 Partly Cloudy SCT120 60.8 55.4 83% 29.81 0.0
12 06:35 S 3 10.00 Partly Cloudy SCT120 57.2 53.6 88% 29.82 0.0
12 06:15 S 3 10.00 Fair CLR 55.4 51.8 88% 29.83 0.0
12 05:55 S 5 10.00 Fair CLR 51.8 51.8 100% 29.82 0.0
12 05:35 Calm 10.00 Fair CLR 51.8 50 94% 29.82 0.0
12 05:15 Calm 10.00 Fair CLR 53.6 51.8 94% 29.83 0.0
12 04:55 Calm 10.00 Fair CLR 53.6 51.8 94% 29.83 0.0
12 04:35 Calm 10.00 Fair CLR 53.6 51.8 94% 29.83 0.0
12 04:15 Calm 10.00 Fair CLR 53.6 51.8 94% 29.83 0.0
12 03:55 Calm 10.00 Fair CLR 53.6 51.8 94% 29.84 0.0
12 03:35 Calm 10.00 Fair CLR 53.6 53.6 100% 29.84 0.0
12 03:15 Calm 10.00 Fair CLR 53.6 51.8 94% 29.84 0.0
12 02:55 Calm 10.00 Fair CLR 55.4 53.6 94% 29.84 0.0
12 02:35 Calm 10.00 Fair CLR 55.4 53.6 94% 29.84 0.0
12 02:15 Calm 10.00 Fair CLR 55.4 53.6 94% 29.83 0.0
12 01:55 Calm 10.00 Fair CLR 57.2 53.6 88% 29.84 0.0
12 01:35 Calm 10.00 Fair CLR 57.2 53.6 88% 29.83 0.0
12 01:15 Calm 10.00 Fair CLR 59 53.6 82% 29.83 0.0
12 00:55 Calm 10.00 Fair CLR 57.2 55.4 94% 29.83 0.0
12 00:35 Calm 10.00 Fair CLR 57.2 53.6 88% 29.82 0.0
12 00:15 Calm 10.00 Fair CLR 59 53.6 82% 29.82 0.0
11 23:55 Calm 10.00 Fair CLR 60.8 53.6 77% 29.82 0.0
11 23:35 Calm 10.00 Fair CLR 60.8 53.6 77% 29.82 0.0
11 23:15 Calm 10.00 Fair CLR 60.8 55.4 83% 29.81 0.0
11 22:55 Calm 10.00 Fair CLR 62.6 55.4 77% 29.81 0.0
11 22:35 Calm 10.00 Fair CLR 62.6 55.4 77% 29.81 0.0
11 22:15 Calm 10.00 Fair CLR 64.4 55.4 73% 29.81 0.0
11 21:55 Calm 10.00 Fair CLR 64.4 53.6 68% 29.8 0.0
11 21:35 Calm 10.00 Fair CLR 66.2 53.6 64% 29.8 0.0
11 21:15 SW 3 10.00 Fair CLR 69.8 53.6 57% 29.79 0.0
11 20:55 SW 3 10.00 Fair CLR 73.4 51.8 47% 29.79 0.0
11 20:35 W 6 10.00 Fair CLR 75.2 50 41% 78 29.79 0.0
11 20:15 W 7 7.00 Fair CLR 75.2 50 41% 78 29.79 0.0
11 19:55 W 8 G 16 10.00 Fair CLR 77 50 39% 78 29.79 0.0
11 19:35 W 14 G 18 10.00 Fair CLR 78.8 50 37% 79 29.79 0.0
11 19:15 W 12 G 16 10.00 Fair CLR 78.8 50 37% 79 29.78 0.0
11 18:55 W 13 G 17 10.00 Fair CLR 78.8 50 37% 79 29.78 0.0
11 18:35 W 12 G 16 10.00 Fair CLR 78.8 50 37% 79 29.77 0.0
11 18:15 NW 13 G 18 10.00 Fair CLR 78.8 51.8 39% 79 29.78 0.0
11 17:55 W 15 G 21 10.00 Fair CLR 78.8 50 37% 79 29.78 0.0
11 17:35 NW 16 G 24 10.00 Partly Cloudy SCT070 78.8 51.8 39% 79 29.78 0.0
11 17:15 W 13 G 22 10.00 Partly Cloudy SCT070 SCT080 78.8 53.6 42% 79 29.78 0.0
11 16:55 W 14 G 20 10.00 Mostly Cloudy SCT055 BKN070 BKN080 78.8 55.4 45% 79 29.78 0.0
11 16:35 NW 14 G 18 10.00 Overcast BKN055 BKN070 OVC100 77 55.4 47% 79 29.78 0.0
11 16:15 W 10 G 18 10.00 Mostly Cloudy SCT055 SCT080 BKN100 80.6 59 48% 81 29.78 0.0
11 15:55 W 9 10.00 Partly Cloudy SCT060 SCT065 78.8 57.2 48% 80 29.78 0.0
11 15:35 W 12 G 18 10.00 Mostly Cloudy SCT060 BKN070 78.8 59 51% 80 29.78 0.0
11 15:15 W 12 G 16 10.00 Partly Cloudy SCT050 SCT070 78.8 57.2 48% 80 29.78 0.0
11 14:55 W 7 10.00 Mostly Cloudy SCT048 BKN060 BKN070 77 59 54% 79 29.79 0.0
11 14:35 Calm 10.00 Partly Cloudy SCT050 SCT060 77 57.2 51% 79 29.79 0.0
11 14:15 W 12 G 16 10.00 Partly Cloudy SCT043 SCT049 75.2 57.2 54% 78 29.8 0.0
11 13:55 W 6 10.00 Partly Cloudy SCT040 73.4 59 61% 29.8 0.0
11 13:35 SW 7 G 10 10.00 Partly Cloudy SCT038 73.4 57.2 57% 29.81 0.0
11 13:15 SW 9 G 13 10.00 Mostly Cloudy BKN036 71.6 59 65% 29.81 0.0
11 12:55 SW 10 10.00 Mostly Cloudy BKN036 BKN043 69.8 57.2 64% 29.82 0.0
11 12:35 S 12 G 18 10.00 Overcast OVC038 69.8 55.4 60% 29.82 0.0
11 12:15 S 15 G 21 10.00 Overcast OVC038 68 55.4 64% 29.82 0.0
11 11:55 S 13 10.00 Overcast OVC036 64.4 53.6 68% 29.82 0.0
11 11:35 S 10 10.00 Overcast BKN036 BKN045 OVC055 62.6 53.6 73% 29.83 0.0
11 11:15 S 9 10.00 Mostly Cloudy SCT041 BKN070 BKN085 62.6 53.6 73% 29.84 0.0
11 10:55 S 10 10.00 Mostly Cloudy SCT060 BKN085 62.6 51.8 68% 29.84 0.0
11 10:35 S 13 G 17 10.00 Overcast OVC060 60.8 51.8 72% 29.84 0.0
11 10:15 S 12 10.00 Overcast BKN060 OVC075 60.8 51.8 72% 29.84 0.0
11 09:55 S 9 10.00 Overcast OVC060 59 51.8 77% 29.85 0.0
11 09:35 S 13 10.00 Overcast OVC060 55.4 51.8 88% 29.85 0.0
11 09:15 S 10 10.00 Overcast OVC060 55.4 51.8 88% 29.86 0.0
11 08:55 SE 8 10.00 Overcast OVC060 53.6 51.8 94% 29.86 0.0 0.02
11 08:35 S 10 10.00 Light Rain OVC060 53.6 50 88% 29.87 0.0 0.02
11 08:15 S 10 G 18 10.00 Light Rain OVC060 53.6 50 88% 29.88 0.0 0.02
11 07:55 S 6 7.00 Rain OVC060 55.4 50 82% 29.9 0.0 0.03
11 07:35 S 7 10.00 Light Rain BKN060 OVC070 55.4 50 82% 29.9 0.0 0.01
11 07:15 SE 5 10.00 Light Rain SCT055 BKN070 OVC100 55.4 50 82% 29.9 0.0
11 06:55 S 6 10.00 Light Rain SCT075 BKN085 OVC110 55.4 48.2 77% 29.9 0.0 0.01
11 06:35 SE 6 10.00 Light Rain SCT080 OVC100 57.2 46.4 67% 29.9 0.0
11 06:15 S 5 10.00 Mostly Cloudy SCT070 BKN110 55.4 46.4 72% 29.91 0.0
11 05:35 S 6 10.00 Fair CLR 57.2 46.4 67% 29.92 0.0
11 05:15 S 6 10.00 Fair CLR 57.2 46.4 67% 29.92 0.0
11 04:55 S 5 10.00 Fair CLR 57.2 44.6 63% 29.92 0.0
11 04:35 S 5 10.00 Fair CLR 55.4 44.6 67% 29.91 0.0
11 04:15 S 6 10.00 Fair CLR 55.4 44.6 67% 29.91 0.0
11 03:55 S 6 10.00 Fair CLR 53.6 44.6 72% 29.91 0.0
11 03:35 S 7 10.00 Fair CLR 53.6 44.6 72% 29.92 0.0
11 03:15 S 6 10.00 Fair CLR 53.6 44.6 72% 29.92 0.0
11 02:55 SE 5 10.00 Fair CLR 53.6 42.8 67% 29.93 0.0
11 02:35 SE 7 10.00 Fair CLR 53.6 44.6 72% 29.93 0.0
11 02:15 SE 6 10.00 Fair CLR 55.4 44.6 67% 29.95 0.0
11 01:55 S 6 10.00 Fair CLR 55.4 44.6 67% 29.95 0.0
11 01:35 SE 6 10.00 Fair CLR 55.4 44.6 67% 29.96 0.0
11 01:15 SE 5 10.00 Fair CLR 55.4 44.6 67% 29.96 0.0
11 00:55 Calm 10.00 Fair CLR 53.6 46.4 77% 29.97 0.0
11 00:35 Calm 10.00 Fair CLR 53.6 46.4 77% 29.97 0.0
11 00:15 Calm 10.00 Fair CLR 53.6 48.2 82% 29.98 0.0
10 23:55 Calm 10.00 Fair CLR 55.4 46.4 72% 29.99 0.0
10 23:35 Calm 10.00 Fair CLR 55.4 46.4 72% 29.99 0.0
10 23:15 Calm 10.00 Fair CLR 53.6 48.2 82% 29.99 0.0
10 22:55 Calm 10.00 Fair CLR 57.2 46.4 67% 29.99 0.0
10 22:35 Calm 10.00 Fair CLR 59 48.2 68% 29.99 0.0
10 22:15 Calm 10.00 Fair CLR 55.4 50 82% 29.99 0.0
10 21:55 Calm 10.00 Fair CLR 57.2 48.2 72% 29.98 0.0
10 21:35 SE 5 10.00 Fair CLR 60.8 46.4 59% 29.97 0.0
10 21:15 SE 5 10.00 Fair CLR 62.6 44.6 52% 29.97 0.0
10 20:55 SE 3 10.00 Fair CLR 62.6 46.4 56% 29.97 0.0
10 20:35 SE 3 10.00 Fair CLR 66.2 44.6 46% 29.97 0.0
10 20:15 S 3 10.00 Fair CLR 68 44.6 43% 29.97 0.0
10 19:55 SE 5 10.00 Fair CLR 69.8 44.6 40% 29.97 0.0
10 19:35 Calm 10.00 Fair CLR 69.8 42.8 38% 29.97 0.0
10 19:15 SW 3 10.00 Fair CLR 69.8 42.8 38% 29.97 0.0
10 18:55 Calm 10.00 Fair CLR 69.8 42.8 38% 29.97 0.0
10 18:35 Calm 10.00 Fair CLR 69.8 41 35% 29.97 0.0
10 18:15 S 3 10.00 Fair CLR 69.8 41 35% 29.98 0.0
10 17:55 SE 6 10.00 Fair CLR 71.6 41 33% 29.99 0.0
10 17:35 Calm 10.00 Fair CLR 71.6 41 33% 30 0.0
10 17:15 E 3 10.00 Fair CLR 71.6 41 33% 30.01 0.0
10 16:55 E 6 10.00 Fair CLR 71.6 42.8 36% 30.01 0.0
10 16:35 Calm 10.00 Fair CLR 71.6 41 33% 30.02 0.0
10 16:15 Calm 10.00 Fair CLR 71.6 42.8 36% 30.02 0.0
10 15:55 NE 5 10.00 Fair CLR 71.6 42.8 36% 30.02 0.0
10 15:35 Calm 10.00 Fair CLR 69.8 41 35% 30.03 0.0
10 15:15 Calm 10.00 Fair CLR 69.8 41 35% 30.04 0.0
10 14:55 Calm 10.00 Fair CLR 69.8 44.6 40% 30.04 0.0
10 14:35 Calm 10.00 Fair CLR 69.8 42.8 38% 30.05 0.0
10 14:15 W 5 10.00 Fair CLR 68 44.6 43% 30.05 0.0
10 13:55 Calm 10.00 Fair CLR 69.8 46.4 43% 30.06 0.0
10 13:35 NW 7 10.00 Fair CLR 68 44.6 43% 30.07 0.0
10 13:15 Calm 10.00 Fair CLR 68 42.8 40% 30.07 0.0
10 12:55 W 3 10.00 Fair CLR 68 42.8 40% 30.08 0.0
10 12:35 Calm 10.00 Fair CLR 68 42.8 40% 30.09 0.0
10 12:15 N 3 10.00 Fair CLR 66.2 42.8 43% 30.09 0.0
10 11:55 N 3 10.00 Fair CLR 64.4 41 43% 30.09 0.0
10 11:35 NW 5 10.00 Fair CLR 64.4 41 43% 30.1 0.0
10 11:15 Calm 10.00 Fair CLR 64.4 42.8 46% 30.1 0.0
10 10:55 NW 3 10.00 Fair CLR 64.4 44.6 49% 30.1 0.0
10 10:35 Calm 10.00 Fair CLR 62.6 46.4 56% 30.1 0.0
10 10:15 Calm 10.00 Fair CLR 62.6 46.4 56% 30.1 0.0
10 09:55 Calm 10.00 Fair CLR 60.8 46.4 59% 30.11 0.0
10 09:35 Calm 10.00 Fair CLR 60.8 46.4 59% 30.12 0.0
10 09:15 Calm 10.00 Fair CLR 60.8 46.4 59% 30.12 0.0
10 08:55 E 3 10.00 Fair CLR 59 48.2 68% 30.12 0.0
10 08:35 E 3 10.00 Fair CLR 57.2 46.4 67% 30.12 0.0
10 08:15 NE 3 10.00 Fair CLR 55.4 46.4 72% 30.12 0.0
10 07:55 Calm 10.00 Fair CLR 55.4 48.2 77% 30.12 0.0
10 07:35 Calm 10.00 Fair CLR 53.6 48.2 82% 30.12 0.0
10 07:15 N 3 10.00 Fair CLR 51.8 48.2 88% 30.12 0.0
10 06:55 NW 3 10.00 Fair CLR 51.8 50 94% 30.12 0.0
10 06:35 Calm 10.00 Fair CLR 50 48.2 94% 30.11 0.0
10 06:15 Calm 10.00 Fair CLR 48.2 46.4 94% 30.11 0.0
10 05:55 Calm 10.00 Fair CLR 46.4 46.4 100% 30.1 0.0
10 05:35 Calm 10.00 Fair CLR 46.4 46.4 100% 30.09 0.0
10 05:15 Calm 10.00 Fair CLR 48.2 46.4 94% 30.08 0.0
10 04:55 Calm 10.00 Fair CLR 48.2 46.4 94% 30.08 0.0
10 04:35 Calm 10.00 Fair CLR 46.4 46.4 100% 30.08 0.0
10 04:15 Calm 10.00 Fair CLR 48.2 46.4 94% 30.09 0.0
10 03:55 NW 3 10.00 Fair CLR 50 46.4 88% 30.09 0.0
10 03:35 Calm 10.00 Fair CLR 48.2 46.4 94% 30.09 0.0
10 03:15 Calm 10.00 Fair CLR 50 46.4 88% 30.09 0.0
10 02:55 Calm 10.00 Fair CLR 50 46.4 88% 30.09 0.0
10 02:35 Calm 10.00 Fair CLR 50 46.4 88% 30.09 0.0
10 02:15 Calm 10.00 Fair CLR 50 46.4 88% 30.09 0.0
10 01:55 Calm 10.00 Fair CLR 51.8 46.4 82% 30.09 0.0
10 01:35 Calm 10.00 Fair CLR 53.6 46.4 77% 30.09 0.0
10 01:15 Calm 10.00 Fair CLR 53.6 46.4 77% 30.09 0.0
10 00:55 N 5 10.00 Fair CLR 53.6 46.4 77% 30.09 0.0
10 00:35 NE 3 10.00 Fair CLR 55.4 46.4 72% 30.08 0.0
10 00:15 N 5 10.00 Partly Cloudy SCT035 55.4 46.4 72% 30.08 0.0
09 23:55 N 6 10.00 Overcast BKN027 OVC035 57.2 46.4 67% 30.07 0.0
09 23:35 NE 12 G 18 10.00 Overcast OVC029 59 48.2 68% 30.07 0.0
09 23:15 N 9 10.00 Overcast OVC029 59 48.2 68% 30.07 0.0
09 22:55 N 12 G 18 10.00 Overcast OVC029 59 50 72% 30.07 0.0
09 22:35 N 9 10.00 Overcast OVC031 60.8 50 68% 30.06 0.0
09 22:15 N 10 G 20 10.00 Overcast OVC031 60.8 50 68% 30.06 0.0
09 21:55 N 5 10.00 Overcast SCT031 OVC040 60.8 50 68% 30.05 0.0
09 21:35 N 7 10.00 Overcast OVC038 60.8 50 68% 30.05 0.0
09 21:15 N 6 10.00 Overcast OVC034 60.8 50 68% 30.04 0.0
09 20:55 N 7 10.00 Overcast OVC034 62.6 50 64% 30.04 0.0
09 20:35 N 10 10.00 Overcast OVC036 62.6 50 64% 30.04 0.0
09 20:15 N 8 10.00 Overcast OVC038 62.6 50 64% 30.03 0.0
09 19:55 N 8 10.00 Overcast OVC042 62.6 48.2 60% 30.03 0.0
09 19:35 N 9 10.00 Overcast OVC042 62.6 50 64% 30.03 0.0
09 19:15 N 10 10.00 Overcast OVC044 62.6 50 64% 30.02 0.0
09 18:55 N 13 10.00 Overcast OVC046 64.4 50 60% 30.02 0.0
09 18:35 N 10 G 17 10.00 Overcast OVC048 64.4 50 60% 30.02 0.0
09 18:15 N 12 G 18 10.00 Overcast OVC046 64.4 48.2 56% 30.02 0.0
09 17:55 N 12 G 17 10.00 Overcast OVC048 64.4 48.2 56% 30.02 0.0
09 17:35 N 10 10.00 Overcast OVC048 66.2 48.2 52% 30.02 0.0
09 17:15 N 12 G 18 10.00 Overcast OVC050 66.2 48.2 52% 30.02 0.0
09 16:55 N 16 10.00 Overcast OVC050 66.2 48.2 52% 30.02 0.0
09 16:35 N 15 G 20 10.00 Overcast OVC050 68 48.2 49% 30.01 0.0
09 16:15 N 16 G 23 10.00 Overcast OVC048 66.2 46.4 49% 30.01 0.0
Date Time (cdt) Wind (mph) Vis. (mi.) Weather Sky Cond. Air Dwpt Max. Min. Relative Humidity Wind Chill (°F) Heat Index (°F) altimeter (in) sea level (mb) 1 hr 3 hr 6 hr
6 hour
Temperature (ºF) Pressure Precipitation (in)